[Iaude] MPEC X241: 2023 XV10 [a=1.50,e=0.37,i=2.0,H=25.4]

mpec at marsden.cfa.harvard.edu mpec at marsden.cfa.harvard.edu
Tue Dec 12 03:38:12 EST 2023


M.P.E.C. 2023-X241                            Issued 2023 December 12, 08:36 UT

     The Minor Planet Electronic Circulars contain information on unusual
         minor planets, routine data on comets and natural satellites,
         and occasional editorial announcements.  They are published
    on behalf of Division F of the International Astronomical Union by the
          Minor Planet Center, Smithsonian Astrophysical Observatory,
                          Cambridge, MA 02138, U.S.A.
			  
             Prepared using the Tamkin Foundation Computer Network

                              MPC at CFA.HARVARD.EDU
            URL https://www.minorplanetcenter.net/    ISSN 1523-6714

                                   2023 XV10                                    


Observations:
     K23X10V*1C2023 12 10.24635307 07 43.028+53 46 33.71               VEX241G96
     K23X10V 1C2023 12 10.25162907 07 41.927+53 46 04.33         20.27GVEX241G96
     K23X10V 1C2023 12 10.26214907 07 39.623+53 45 04.39         20.28GVEX241G96
     K23X10V  C2023 12 10.30453907 07 29.341+53 41 00.64         20.7 GVEX241H01
     K23X10V  C2023 12 10.31127107 07 27.768+53 40 21.02         21.0 GVEX241H01
     K23X10V  C2023 12 10.32144007 07 25.408+53 39 21.50         20.3 GVEX241H01
     K23X10V  C2023 12 10.32587107 07 24.371+53 38 55.39         20.3 GVEX241H01
     K23X10V mC2023 12 10.36271707 07 16.511+53 35 18.78         22.89GVEX241I52
     K23X10V mC2023 12 10.36393907 07 16.212+53 35 11.90         20.92GVEX241I52
     K23X10V mC2023 12 10.36455107 07 16.043+53 35 07.76         21.08GVEX241I52
     K23X10V KC2023 12 11.30817307 04 56.190+52 03 57.80         20.94GVEX241I52
     K23X10V KC2023 12 11.31135207 04 55.540+52 03 41.00         20.75GVEX241I52
     K23X10V KC2023 12 11.31452107 04 54.830+52 03 23.90         21.12GVEX241I52
     K23X10V KC2023 12 11.31768807 04 54.130+52 03 07.20               VEX241I52
     K23X10V KC2023 12 12.33122207 02 32.04 +50 33 14.9          21.1 GVEX241H21
     K23X10V KC2023 12 12.33681407 02 31.00 +50 32 46.1          21.1 GVEX241H21

Observer details:
G96 Mt. Lemmon Survey.  Observer D. Rankin.  Measurers E. C. Beshore, D. Fay,
    J. B. Fazekas, D. C. Fuls, A. R. Gibbs, A. D. Grauer, H. Groeller, J. K.
    Hogan, R. A. Kowalski, S. M. Larson, G. J. Leonard, D. Rankin, R. L.
    Seaman, F. C. Shelly, K. W. Wierzchos.  1.5-m reflector + 10K CCD.
H01 Magdalena Ridge Observatory, Socorro.  Observers W. H. Ryan, E. V. Ryan.
    Measurer W. H. Ryan.  2.4-m f/8.9 Ritchey-Chretien + CCD.
H21 Astronomical Research Observatory, Westfield.  Observer R. Holmes.
    Measurers T. Linder, R. Holmes, L. Horn.  0.76-m f/3.0 astrograph + CCD.
I52 Steward Observatory, Mt. Lemmon Station.  Observer G. J. Leonard.
    Measurers E. C. Beshore, D. Fay, J. B. Fazekas, D. C. Fuls, A. R. Gibbs,
    A. D. Grauer, H. Groeller, J. K. Hogan, R. A. Kowalski, S. M. Larson, G.
    J. Leonard, D. Rankin, R. L. Seaman, F. C. Shelly, K. W. Wierzchos.  1.0-m
    prime focus + CCD.

Orbital elements:
2023 XV10                                                Earth MOID = 0.0078 AU
Epoch 2023 Sept. 13.0 TT = JDT 2460200.5                MPC                     
M 334.44258              (2000.0)            P               Q                  
n   0.53702406     Peri.   51.34292     +0.85505114     -0.51840744             
a   1.4990181      Node   339.87397     +0.46438068     +0.77573715             
e   0.3675520      Incl.    1.97953     +0.23073388     +0.35984108             
P   1.84           H   25.44          G   0.15           U   8                  
Residuals in seconds of arc
231210 G96  0.1-  0.5-    231210 H01  0.0   0.1+    231211 I52  0.3-  0.2-
231210 G96  0.1+  0.1+    231210 I52  0.3+  0.2-    231211 I52  0.7-  0.0
231210 G96  0.0   0.0     231210 I52  0.2+  0.2+    231212 H21  0.0   0.0
231210 H01  0.1+  0.4+    231210 I52  0.0   0.3-    231212 H21  0.0   0.0
231210 H01  0.1-  0.1+    231211 I52  0.1+  0.2-
231210 H01  0.0   0.2+    231211 I52  0.2+  0.0

Ephemeris:
2023 XV10                a,e,i = 1.50, 0.37, 2                   q = 0.9481
Date    TT    R. A. (2000) Decl.     Delta      r    Elong.  Phase     V
2023 11 12    18 30 14.2 +06 49 30   0.06077 0.9573    55.9   121.1    24.2
...
2023 11 27    16 50 09.2 +75 47 17   0.03470 0.9917    97.0    81.0    21.0
...
2023 12 05    07 31 25.9 +65 18 27   0.05150 1.0189   129.1    48.6    20.9
...
2023 12 11    07 05 36.2 +52 32 22   0.07120 1.0426   143.0    34.6    21.2
2023 12 12    07 03 16.2 +51 01 24   0.07480 1.0468   144.9    32.8    21.3
2023 12 13    07 01 10.7 +49 37 49   0.07847 1.0510   146.6    31.0    21.4
...
2023 12 19    06 51 49.1 +43 11 05   0.1020  1.0778   155.8    21.9    21.7
...
2023 12 27    06 43 56.2 +37 40 59   0.1371  1.1164   164.8    13.4    22.1
...
2024 01 11    06 37 01.1 +31 40 43   0.2170  1.1947   165.4    12.0    23.2

A. U. Tomatic                (C) Copyright 2023 MPC           M.P.E.C. 2023-X241




More information about the Iaude mailing list